Simultaneous Nadir Overpasses (SNOs) Predictions

Prediction of SNOs between GOES-17 and TERRA Satellite Orbit:

Table of predicted SNOs for the next 14.0 days since TLE Epoch: 5/9/2025
Index Date Time (GOES-17) GOES-17 Lat,Lon TERRA Lat,Lon Distance(km) Time Diff (sec)
1 05/11/2025 16:15:19 0.03,-104.47 -0.41,-102.38 237.08 80
2 05/12/2025 04:34:57 -0.03,-104.41 -0.62,-107.15 312.58 80
3 05/14/2025 04:13:13 -0.02,-104.42 0.38,-102.57 211.30 80
4 05/14/2025 16:32:41 0.02,-104.49 0.63,-107.30 319.79 80
5 05/16/2025 16:16:17 0.01,-104.51 -0.39,-102.72 203.92 80
6 05/17/2025 04:35:55 -0.01,-104.45 -0.62,-107.49 345.68 80
7 05/19/2025 04:14:09 -0.00,-104.46 0.30,-102.89 178.17 80
8 05/19/2025 16:33:38 0.00,-104.53 0.65,-107.63 353.06 80
9 05/21/2025 16:17:12 -0.00,-104.54 -0.29,-103.03 171.30 80
10 05/22/2025 04:36:49 0.00,-104.48 -0.69,-107.81 377.80 80
